Weather in Vorogovo

Russia / Krasnoyarsk Krai     61°01′56″N   89°36′44″E
temp.,
°C
wind,
m/s
gust,
m/s
humid.,
%
clouds,
%
prec.,
mm/h
press.,
hPa
HPBL,
m
20 june, sun
sun2001:00+15se259897 3.1 998147
04:00+16ese2698100 1.9 997159
07:00+17s3994100 2.1 998480
10:00+20s347860 0.1 998796
13:00+18w4793100 1.9 999479
16:00+13w3697100 3.4 1001449
19:00+14wnw1388100 3.6 1003470
22:00+12w1394100 0.1 1005120
21 june, mon
mon2101:00+12nw1393100 0.1 1006124
04:00+11wnw1293100 0.0 100771
07:00+12w1286100 0.0 1008288
10:00+14wsw1170100 0.1 1008756
13:00+16wsw2250100 0.2 10081606
16:00+16w3348100 0.0 10081488
19:00+16nnw234871 0.0 10091184
22:00+13nnw2266100 0.0 100835
22 june, tue
tue2201:00+11n1179100 0.1 100814
04:00+10nnw0095100 0.5 100828
07:00+10n2496100 1.2 1008303
10:00+11n128880 0.3 1009337
13:00+16nnw225298 0.4 10091601
16:00+16nw225286 0.0 10091025
19:00+17nw224622 0.0 10101353
22:00+13n376298 0.0 1010211
23 june, wed
wed2301:00+11nne397063 0.0 1010288
04:00+11nne41073100 0.0 1009320
07:00+11ne2584100 0.3 1010165
10:00+11ne3896100 1.7 1009280
13:00+12e3994100 2.1 1010477
16:00+17ese4670100 0.4 10091007
19:00+16sse3675100 1.2 1010780
22:00+13e2686100 0.1 1010141
24 june, thu
thu2401:00+10se239729 0.1 101158
04:00+8s249822 0.0 1011105
07:00+11sse258070 0.0 1011402
10:00+16s3455100 0.0 10111029
13:00+19s3442100 0.0 10101567
16:00+20s2238100 0.0 10091901
19:00+19sw1143100 0.0 1009789
22:00+15w3861100 0.0 1009273